Tracking 19832 objects as of 25-Aug-2019
HD Live streaming from Space Station
objects crossing your sky now

ANIK E2

Track ANIK E2 now!
ANIK E2 is classified as:


NORAD ID: 21222
Int'l Code: 1991-026A
Perigee: 36,082.7 km
Apogee: 36,151.3 km
Inclination: 12.1 °
Period: 1,452.6 minutes
Semi major axis: 42487 km
RCS: 12.1056 m2 (large)
Launch date: April 4, 1991
Source: Canada (CA)
Launch site: FRENCH GUIANA (FRGUI)

Inclined orbit; Anik is Inuit for "Little Brother"; 24 C-band, 16 Ku-band transponders.
aabbcc
Your satellite tracking list
Your tracking list is empty




NASA's NSSDC Master Catalog

Two Line Element Set (TLE):
1 21222U 91026A   19235.88146924 -.00000221 +00000-0 +00000-0 0  9995
2 21222 012.0905 030.0426 0008072 335.0523 040.6608 00.99129762092393
Source of the keplerian elements: AFSPC